908  
ASUS43 KMKX 271221  
RWRWI  
 
WISCONSIN REGIONAL WEATHER ROUNDUP  
NATIONAL WEATHER SERVICE MILWAUKEE/SULLIVAN WI  
700 AM CDT TUE OCT 27 2020  
 
NOTE: "FAIR" INDICATES FEW OR NO CLOUDS BELOW 12,000 FEET WITH NO  
SIGNIFICANT WEATHER AND/OR S TO VISIBILITY
.  
 
WIZ001-002-006>008-014>016-023>028-271300-  
NORTHWEST WISCONSIN  
 
CITY SKY/WX TMP DP RH WIND PRES REMARKS
 
SUPERIOR ARPT CLEAR 14 10 84 SW5 30.21F WCI 6  
6HR MIN TEMP: 12; 6HR MAX TEMP: 19;  
 
ASHLAND CLEAR 15 10 80 SW9 30.24F WCI 3  
6HR MIN TEMP: 14; 6HR MAX TEMP: 18;  
 
HAYWARD CLEAR 9 4 80 CALM 30.24F  
6HR MIN TEMP: 9; 6HR MAX TEMP: 13;  
 
SIREN CLEAR 16 13 89 S6 30.25F WCI 7  
6HR MIN TEMP: 15; 6HR MAX TEMP: 17;  
 
CUMBERLAND CLEAR 9 7 92 SW5 30.25F WCI 0  
RICE LAKE N/A 13 11 90 CALM 30.28F  
CHETEK CLEAR 12 10 92 MISG 30.28F  
6HR MIN TEMP: 12; 6HR MAX TEMP: 17;  
 
LADYSMITH N/A 14 12 95 CALM 30.27F  
6HR MIN TEMP: 14; 6HR MAX TEMP: 19;  
 
EAU CLAIRE CLEAR 17 13 84 SW3 30.30F  
6HR MIN TEMP: 17; 6HR MAX TEMP: 21;  
 
MENOMONIE CLEAR 13 11 88 CALM 30.30F  
6HR MIN TEMP: 12; 6HR MAX TEMP: 17;  
 
NEW RICHMOND CLEAR 15 13 89 S5 30.29F WCI 8  
6HR MIN TEMP: 14; 6HR MAX TEMP: 17;  
 
OSCEOLA CLEAR 14 12 94 SE6 30.31F WCI 5  
6HR MIN TEMP: 11; 6HR MAX TEMP: 15;  
 

 
 
WIZ003>005-009-010-017-018-271300-  
NORTH CENTRAL WISCONSIN  
 
CITY SKY/WX TMP DP RH WIND PRES REMARKS
 
MANITOWISH WTR CLEAR 13 11 92 CALM 30.21F  
6HR MIN TEMP: 9; 6HR MAX TEMP: 14;  
 
ARBOR VITAE CLEAR 13 11 91 SW3 30.21F  
6HR MIN TEMP: 11; 6HR MAX TEMP: 17;  
 
WOODRUFF CLEAR 13 11 91 SW3 30.21F  
6HR MIN TEMP: 11; 6HR MAX TEMP: 17;  
 
RHINELANDER CLEAR 11 8 88 CALM 30.23F  
6HR MIN TEMP: 9; 6HR MAX TEMP: 17;  
 
EAGLE RIVER CLEAR 13 12 95 SW3 30.21F  
6HR MIN TEMP: 10; 6HR MAX TEMP: 17;  
 
LAND O LAKES CLEAR 8 5 88 CALM 30.22S  
6HR MIN TEMP: 8; 6HR MAX TEMP: 14;  
 
PHILLIPS CLEAR 11 9 92 CALM 30.23F  
6HR MIN TEMP: 9; 6HR MAX TEMP: 14;  
 
TOMAHAWK CLEAR 6 4 90 CALM 30.24F  
6HR MIN TEMP: 7; 6HR MAX TEMP: 11;  
 
MEDFORD CLEAR 12 10 92 S3 30.24F  
6HR MIN TEMP: 13; 6HR MAX TEMP: 17;  
 
MERRILL CLEAR 11 9 91 CALM 30.26S  
6HR MIN TEMP: 12; 6HR MAX TEMP: 16;  
 

 
 
WIZ029-030-035-036-043>047-271300-  
CENTRAL WISCONSIN  
 
CITY SKY/WX TMP DP RH WIND PRES REMARKS
 
WAUSAU CLEAR 21 17 84 W6 30.26S WCI 13  
6HR MIN TEMP: 19; 6HR MAX TEMP: 23;  
 
MOSINEE CLEAR 21 16 79 W5 30.28S WCI 15  
MARSHFIELD CLEAR 20 15 81 W3 30.27F  
6HR MIN TEMP: 20; 6HR MAX TEMP: 24;  
 
STEVENS POINT PTCLDY 22 17 79 CALM 30.29F  
6HR MIN TEMP: 17; 6HR MAX TEMP: 23;  
 
WAUPACA MOCLDY 27 22 80 CALM 30.31S  
6HR MIN TEMP: 23; 6HR MAX TEMP: 28;  
 
WAUTOMA PTCLDY 24 22 91 CALM 30.31F  
6HR MIN TEMP: 20; 6HR MAX TEMP: 24;  
 
WISC RAPIDS PTCLDY 24 17 74 W3 30.31S  
6HR MIN TEMP: 20; 6HR MAX TEMP: 24;  
 
CAMP DOUGLAS PTCLDY 23 23 100 CALM 30.31F  
6HR MIN TEMP: 21; 6HR MAX TEMP: 24;  
 

 
 
WIZ011>013-019>022-031-037>040-048>050-271300-  
NORTHEAST WISCONSIN  
 
CITY SKY/WX TMP DP RH WIND PRES REMARKS
 
ANTIGO PTCLDY 17 15 89 W6 30.25S WCI 9  
6HR MIN TEMP: 17; 6HR MAX TEMP: 20;  
 
SHAWANO MOCLDY 27 21 79 CALM 30.29F  
6HR MIN TEMP: 25; 6HR MAX TEMP: 27;  
 
OCONTO MOCLDY 26 20 79 CALM 30.29F  
6HR MIN TEMP: 23; 6HR MAX TEMP: 27;  
 
STURGEON BAY MOCLDY 30 25 81 W6 30.30R WCI 24  
6HR MIN TEMP: 27; 6HR MAX TEMP: 32;  
 
GREEN BAY MOCLDY 28 20 71 W5 30.31R WCI 23  
6HR MIN TEMP: 26; 6HR MAX TEMP: 28;  
 
MANITOWOC CLOUDY 28 22 78 W5 30.31R WCI 23  
6HR MIN TEMP: 28; 6HR MAX TEMP: 29;  
 
APPLETON MOCLDY 27 16 63 W5 30.29R WCI 21  
CLINTONVILLE MOCLDY 26 20 78 CALM 30.30F  
6HR MIN TEMP: 23; 6HR MAX TEMP: 26;  
 
OSHKOSH CLOUDY 28 20 71 W3 30.31R  
6HR MIN TEMP: 26; 6HR MAX TEMP: 28;  
 

 
 
WIZ032>034-041-042-053>061-271300-  
SOUTHWEST WISCONSIN  
 
CITY SKY/WX TMP DP RH WIND PRES REMARKS
 
LA CROSSE CLEAR 26 16 65 CALM 30.35R  
6HR MIN TEMP: 24; 6HR MAX TEMP: 26;  
 
SPARTA CLEAR 19 19 97 CALM 30.34R  
6HR MIN TEMP: 19; 6HR MAX TEMP: 22;  
 
VIROQUA CLEAR 20 20 100 W5 30.31S WCI 14  
6HR MIN TEMP: 20; 6HR MAX TEMP: 23;  
 
BOSCOBEL CLOUDY 29 20 69 NW3 30.35S  
6HR MIN TEMP: 25; 6HR MAX TEMP: 29;  
 
PRAIRIE DU CHI PTCLDY 27 16 65 CALM 30.35F  
6HR MIN TEMP: 27; 6HR MAX TEMP: 28;  
 
PLATTEVILLE CLOUDY 30 24 79 W3 30.32F  
6HR MIN TEMP: 30; 6HR MAX TEMP: 30;  
 

 
 
WIZ056-057-062-063-064-067-068-271300-  
SOUTH CENTRAL WISCONSIN  
 
CITY SKY/WX TMP DP RH WIND PRES REMARKS
 
REEDSBURG PTCLDY 26 19 74 CALM 30.32S  
6HR MIN TEMP: 25; 6HR MAX TEMP: 26;  
 
BARABOO/DELLS MOCLDY 25 20 83 CALM 30.31F  
6HR MIN TEMP: 22; 6HR MAX TEMP: 25;  
 
LONE ROCK CLOUDY 28 22 78 W3 30.34F  
6HR MIN TEMP: 27; 6HR MAX TEMP: 29;  
 
MINERAL POINT CLOUDY 30 23 74 CALM 30.31F  
MADISON CLOUDY 29 21 72 CALM 30.33S  
6HR MIN TEMP: 29; 6HR MAX TEMP: 29;  
 
MIDDLETON CLOUDY 31 22 70 CALM 30.31F  
6HR MIN TEMP: 31; 6HR MAX TEMP: 31;  
 
WATERTOWN CLOUDY 29 21 72 CALM 30.32S  
6HR MIN TEMP: 29; 6HR MAX TEMP: 30;  
 
MONROE CLOUDY 30 21 70 CALM 30.30F  
6HR MIN TEMP: 30; 6HR MAX TEMP: 31;  
 
JANESVILLE CLOUDY 32 23 69 N6 30.34R WCI 26  

 
 
WIZ051-052-058>065-066-070>072-271300-  
SOUTHEAST WISCONSIN  
 
CITY SKY/WX TMP DP RH WIND PRES REMARKS
 
MILWAUKEE CLOUDY 34 20 56 NW3 30.31R  
6HR MIN TEMP: 34; 6HR MAX TEMP: 35;  
 
WAUKESHA CLOUDY 28 19 69 NW3 30.33R  
MILWAUKEE/TIMM CLOUDY 32 19 59 NW5 30.33S WCI 27  
RACINE CLOUDY 33 22 63 NW5 30.33R WCI 29  
6HR MIN TEMP: 33; 6HR MAX TEMP: 35;  
 
KENOSHA CLOUDY 33 23 66 W3 30.32R  
6HR MIN TEMP: 33; 6HR MAX TEMP: 36; 6HR PCP: TRACE;  
 
FOND DU LAC CLOUDY 29 20 69 CALM 30.31S  
6HR MIN TEMP: 27; 6HR MAX TEMP: 29;  
 
SHEBOYGAN CLOUDY 31 20 63 W6 30.31R WCI 25  
6HR MIN TEMP: 30; 6HR MAX TEMP: 31;  
 
WEST BEND CLOUDY 30 21 69 NW3 30.30F  
JUNEAU CLOUDY 28 21 76 CALM 30.32F  
6HR MIN TEMP: 28; 6HR MAX TEMP: 28;  
 

 
 
LSZ147-162-271300-  
LAKE SUPERIOR  
 
STATION/POSITION TIME TEMP WIND PRES WAVE
 
AIR SEA DIR/SP/G HT/PER  
(UTC) (F) (DEG/KT/KT) (MB) (FT/S)  
W MID LAKE BUOY 1200 31 43 220/ 19/ 25 1023.3  
DEVILS ISLAND 1200 26 210/ 16/ 20 1023.7F  
SAXON HARBOR 1140 13 200/ 4/ 6 1024.0F  

 
 
LMZ867-665-643>646-271300-  
LAKE MICHIGAN  
 
STATION/POSITION TIME TEMP WIND PRES WAVE
 
AIR SEA DIR/SP/G HT/PER  
(UTC) (F)  
 
CLICK HERE TO GO TO PREVIOUS BULLETINS.

The Nexlab WI Page Main Text Page